FENGYUN 1C DEB

Satellite information

Favourite Embed

Satellite Type and Status

DEBRISIN ORBIT

Key statistics

Satellite FENGYUN 1C DEB at a glance.

Uptime

9669

Days in orbit

Revolutions

≈ 14.0

Per day

Orbit

SSO

Sun Synchronous Orbit

Inclination

99.2

Latest

Satellite identification and parameters

Extended collection of information and parameters for FENGYUN 1C DEB.

Object identification

Identified? True

Debris? True

Object name: FENGYUN 1C DEB

International designator: 1999-025DJB

Object number (NORAD): 33738

Object ID (CCSDS): 33738

Country: PEOPLES REPUBLIC OF CHINA (PRC)

Current information (Y/N): Y

RCS size: SMALL

Orbital parameters

Period: 102.902 minutes

Inclination: 99.1573 deg

SMA: 7274.033 km

Apoapsis: 1032.328 km

Periapsis: 759.469 km

RAAN: 1.0103 deg

Eccentricy: 0.01875569

Argument of periapsis: 146.5622 deg

Mean anomaly: 337.5255 deg

Mean motion: 13.99393512 rev/day

Mean motion (dot): 0.00001954 rev/day2

B* drag term: 0.0011797805 1/REarth

Two-line elements (TLE)

Creation date: Oct. 28, 2025, 2:18 a.m.

Reference frame: TEME

Reference center: EARTH

Epoch: Oct. 27, 2025, 11:40 p.m. UTC

TLE line 0: 0 FENGYUN 1C DEB

TLE line 1: 1 33738U 99025DJB 25300.98655213 .00001954 00000-0 11798-2 0 9995

TLE line 2: 2 33738 99.1573 1.0103 0187557 146.5622 337.5255 13.99393512885965

Live tracking on map

Real-time ground track for satellite FENGYUN 1C DEB.

In-orbit conjunctions

A list of the most updated potential collisions computed for object FENGYUN 1C DEB.

Target Orbit TCA Probability of collision Miss distance Type
FENGYUN 1C DEB SSO 2025-01-09 08:29:19 0.0001411429 232.0 (m) DEBRIS
COSMOS 2233 LEO 2024-11-14 03:03:06 0.0003022846 636.0 (m) PAYLOAD

Associated space launch

Chinese polar orbiting meteorological satellite

FENGYUN 1C DEB was lifted into orbit during the mission ‘Long March 4B | Feng Yun 1C’, on board a Long March 4B space rocket.

The launch took place on May 10, 1999, 1:33 a.m. from Launch Complex 7.

For more information about the launch, click the button.

Launch to space Long March 4B | Feng Yun 1C
Long March 4B | Feng Yun 1C

Agency: N/A

Status: Launch Successful

Launch date: May 10, 1999, 1:33 a.m. UTC

Rocket: Long March 4B

Launch pad: Launch Complex 7

Location: Taiyuan Satellite Launch Center, People's Republic of China

...

Latest news about this satellite

There are no fresh news available about this satellite. Check back as we update our databases every day.


Newsletter sign-up

Weekly statistics, charts and insights to help you stay on top of the space industry.